Louisville, KY

12:09 AM EST on December 11, 2016 (GMT -0500)
Louisville International-Standiford

Weather History for KSDF - June, 2013

Change the Weather History Date:

Thursday, June 20, 2013

  Actual Average Record
Temperature  
Mean Temperature 78 °F 77 °F  
Max Temperature 88 °F 87 °F 100 °F (1953)
Min Temperature 67 °F 67 °F 50 °F (1980)
Degree Days  
Heating Degree Days 0 0  
Month to date heating degree days 0 1  
Since 1 June heating degree days 0 1  
Since 1 July heating degree days 4115 4093  
Cooling Degree Days 13 12  
Month to date cooling degree days 196 194  
Year to date cooling degree days 424 368  
Since 1 June cooling degree days 196 194  
Growing Degree Days 27 (Base 50)    
Moisture  
Dew Point 60 °F    
Average Humidity 55    
Maximum Humidity 73    
Minimum Humidity 36    
Precipitation  
Precipitation 0.00 in 0.12 in 2.64 in (1895)
Month to date precipitation 1.05 2.63  
Year to date precipitation 20.10 22.50  
Snow  
Snow 0.00 in 0.00 in - ()
Month to date snowfall 0.0 0.0  
Since 1 June snowfall 0.0 0.0  
Since 1 July snowfall 9.8 12.5  
Snow Depth 0.00 in    
Sea Level Pressure  
Sea Level Pressure 30.13 in    
Wind  
Wind Speed 5 mph (ESE)    
Max Wind Speed 13 mph    
Max Gust Speed 16 mph    
Visibility 10 miles    
Events      
T = Trace of Precipitation, MM = Missing Value Source: NWS Daily Summary

Daily Weather History Graph

Daily Weather History Graph

Search for Another Location

Airport or City:

Trip Planner

Search our weather history database for the weather conditions in past years. The results will help you decide how hot, cold, wet, or windy it might be!

Date:

Astronomy

Jun. 20, 2013 Rise Set
Actual Time 6:19 AM EDT 9:09 PM EDT
Civil Twilight 5:48 AM EDT 9:40 PM EDT
Nautical Twilight 5:08 AM EDT 10:20 PM EDT
Astronomical Twilight 4:23 AM EDT 11:05 PM EDT
Moon 6:12 PM EDT (6/20) 3:43 AM EDT (6/20)
Length of Visible Light 15h 52m
Length of Day
14h 49m
Waxing Gibbous, 89% of the Moon is Illuminated
Jun 20
Waxing Gibbous
Jun 23
Full
Jun 30
Last Quarter
Jul 8
New
Jul 15
First Quarter

Hourly Weather History & Observations

Time (EDT) Temp. Heat Index Dew Point Humidity Pressure Visibility Wind Dir Wind Speed Gust Speed Precip Events Conditions
12:56 AM 73.9 °F - 61.0 °F 64% 30.09 in 10.0 mi East 6.9 mph - N/A   Scattered Clouds
1:56 AM 72.0 °F - 60.1 °F 66% 30.10 in 10.0 mi SE 3.5 mph - N/A   Partly Cloudy
2:56 AM 72.0 °F - 60.1 °F 66% 30.11 in 10.0 mi Calm Calm - N/A   Clear
3:56 AM 70.0 °F - 60.1 °F 71% 30.11 in 10.0 mi SE 3.5 mph - N/A   Partly Cloudy
4:56 AM 70.0 °F - 59.0 °F 68% 30.11 in 10.0 mi Variable 3.5 mph - N/A   Clear
5:56 AM 69.1 °F - 57.9 °F 68% 30.13 in 10.0 mi Calm Calm - N/A   Partly Cloudy
6:56 AM 69.1 °F - 59.0 °F 70% 30.15 in 10.0 mi Calm Calm - N/A   Partly Cloudy
7:56 AM 70.0 °F - 59.0 °F 68% 30.16 in 10.0 mi Calm Calm - N/A   Partly Cloudy
8:56 AM 73.0 °F - 61.0 °F 66% 30.17 in 10.0 mi Calm Calm - N/A   Scattered Clouds
9:56 AM 78.1 °F - 63.0 °F 60% 30.17 in 10.0 mi SE 5.8 mph - N/A   Scattered Clouds
10:56 AM 81.0 °F 82.2 °F 63.0 °F 54% 30.17 in 10.0 mi SSE 4.6 mph - N/A   Partly Cloudy
11:56 AM 82.9 °F 83.3 °F 61.0 °F 47% 30.17 in 10.0 mi Variable 6.9 mph - N/A   Scattered Clouds
12:56 PM 84.0 °F 84.4 °F 61.0 °F 46% 30.17 in 10.0 mi SE 6.9 mph - N/A   Scattered Clouds
1:56 PM 86.0 °F 85.7 °F 60.1 °F 41% 30.16 in 10.0 mi SE 9.2 mph - N/A   Scattered Clouds
2:56 PM 84.0 °F 83.8 °F 59.0 °F 43% 30.15 in 10.0 mi SE 8.1 mph - N/A   Mostly Cloudy
3:56 PM 84.0 °F 83.8 °F 59.0 °F 43% 30.13 in 10.0 mi SE 6.9 mph - N/A   Mostly Cloudy
4:56 PM 86.0 °F 85.0 °F 57.9 °F 38% 30.12 in 10.0 mi ESE 6.9 mph - N/A   Mostly Cloudy
5:56 PM 87.1 °F 86.1 °F 57.9 °F 37% 30.12 in 10.0 mi East 5.8 mph - N/A   Scattered Clouds
6:56 PM 86.0 °F 84.9 °F 57.0 °F 37% 30.12 in 10.0 mi East 5.8 mph - N/A   Scattered Clouds
7:56 PM 84.0 °F 83.8 °F 59.0 °F 43% 30.11 in 10.0 mi ESE 6.9 mph - N/A   Scattered Clouds
8:56 PM 81.0 °F 81.6 °F 60.1 °F 49% 30.12 in 10.0 mi ESE 6.9 mph - N/A   Scattered Clouds
9:56 PM 80.1 °F 81.1 °F 61.0 °F 52% 30.13 in 10.0 mi SE 5.8 mph - N/A   Scattered Clouds
10:56 PM 78.1 °F - 61.0 °F 56% 30.14 in 10.0 mi East 4.6 mph - N/A   Partly Cloudy
11:56 PM 78.1 °F - 61.0 °F 56% 30.14 in 10.0 mi East 4.6 mph - N/A   Partly Cloudy